• Join FlightAware (Why Join?)
  • Login
  • US Flag GB Flag 
04:22 EDT


 

Airport Tracker/Info


-or-


 

Live Flight TrackerFlight Track Log ✈ DAL3672 ✈ 26-Apr-2013 ✈ KDTW - KMHT

Flight Track Log - Related Links

Times and Time Zones

All times are in EDT time to prevent confusion due to time zone crossing. See the DAL3672 flight status page for this flight to view local times or setup timezone preferences in your user account.

Time Position Orientation Groundspeed Altitude Reporting Facility
EDT Latitude Longitude Course Direction KTS MPH feet Rate Location/Type
10:23 42.1994 -83.3581 94° East 162 186 1,400  Level Cleveland Center
10:24 42.1244 -83.3547 178° South 225 259 4,600 2,280 Climbing Cleveland Center
10:25 42.0822 -83.2914 132° Southeast 288 331 7,000 2,520 Climbing Cleveland Center
10:26 42.3142 -82.7247 78° East  Level FlightAware Approximate
10:26 42.1056 -83.1889 73° East 284 327 9,800  Level Cleveland Center
10:27 42.3364 -82.5651 77° East  Level FlightAware Approximate
10:27 42.1319 -83.1172 64° Northeast 305 351 11,000  Level Cleveland Center
10:28 42.3646 -82.4113 94° East  Level FlightAware Approximate
10:28 42.1719 -83.0039 65° Northeast 344 396 12,100  Level Cleveland Center
10:29 42.2164 -82.8794 64° Northeast 349 402 13,400 1,380 Climbing Cleveland Center
10:30 42.2647 -82.7436 64° Northeast 365 420 14,900 1,500 Climbing Cleveland Center
10:31 42.3131 -82.6106 64° Northeast 384 442 16,400 1,500 Climbing Cleveland Center
10:32 42.3592 -82.4714 66° East 389 448 17,900 1,260 Climbing Cleveland Center
10:33 42.3639 -82.3169 88° East 395 455 19,000 1,200 Climbing Cleveland Center
10:34 42.3556 -82.1594 94° East 400 460 20,300 1,200 Climbing Cleveland Center
10:35 42.3472 -81.9964 94° East 422 486 21,400 1,020 Climbing Cleveland Center
10:36 42.3408 -81.8333 93° East 436 502 22,400 900 Climbing Cleveland Center
10:37 42.3361 -81.6842 92° East 442 509 23,300 720 Climbing Cleveland Center
10:38 42.3250 -81.5156 95° East 442 509 23,900 600 Climbing Cleveland Center
10:39 42.3181 -81.3442 93° East 447 514 24,500 540 Climbing Cleveland Center
10:40 42.3086 -81.1644 94° East 464 534 25,000 480 Climbing Cleveland Center
10:41 42.3011 -80.9903 93° East 469 540 25,500 480 Climbing Cleveland Center
10:42 42.2892 -80.7936 95° East 469 540 26,000 480 Climbing Cleveland Center
10:43 42.3017 -80.6169 84° East 471 542 26,500 540 Climbing Cleveland Center
10:44 42.3183 -80.4372 83° East 477 549 27,100 540 Climbing Cleveland Center
10:45 42.3367 -80.2572 82° East 487 560 27,600 480 Climbing Cleveland Center
10:46 42.3550 -80.0775 82° East 481 554 28,100 420 Climbing Cleveland Center
10:47 42.3686 -79.9172 83° East 481 554 28,500 420 Climbing Cleveland Center
10:48 42.3842 -79.7400 83° East 481 554 29,000 540 Climbing Cleveland Center
10:49 42.3994 -79.5569 83° East 481 554 29,600 540 Climbing Cleveland Center
10:50 42.4144 -79.3822 83° East 481 554 30,100 480 Climbing Cleveland Center
10:51 42.4292 -79.2075 83° East 476 548 30,600 420 Climbing Cleveland Center
10:52 42.4436 -79.0328 84° East 471 542 31,000 180 Climbing Cleveland Center
10:53 42.4578 -78.8553 84° East 471 542 31,000  Level Cleveland Center
10:54 42.4717 -78.6775 84° East 471 542 31,000  Level Cleveland Center
10:55 42.4872 -78.4939 83° East 478 550 31,000  Level Cleveland Center
10:56 42.5003 -78.3106 84° East 484 557 31,000  Level Cleveland Center
10:57 42.5133 -78.1297 84° East 484 557 31,000  Level Cleveland Center
10:59 42.5364 -77.8008 84° East 489 563 31,000  Level Boston Center
11:00 42.5506 -77.6356 83° East 489 563 31,000  Level Boston Center
11:01 42.5608 -77.4531 86° East 489 563 31,000  Level Boston Center
11:02 42.5728 -77.2706 85° East 489 563 31,000  Level Boston Center
11:04 42.5961 -76.9056 85° East 489 563 31,000  Level Boston Center
11:05 42.6058 -76.7594 85° East 489 563 31,000  Level Boston Center
11:06 42.6183 -76.5403 85° East 484 557 31,000  Level Boston Center
11:07 42.6289 -76.3575 85° East 479 551 31,000  Level Boston Center
11:08 42.6411 -76.1747 85° East 479 551 31,000  Level Boston Center
11:09 42.6514 -75.9917 86° East 479 551 31,000  Level Boston Center
11:10 42.6589 -75.8114 87° East 474 545 31,000  Level Boston Center
11:11 42.6683 -75.6283 86° East 479 551 31,000 -540 Level Boston Center
11:12 42.6794 -75.4453 85° East 479 551 30,000 -1,020 Descending Boston Center
11:13 42.6869 -75.2336 87° East 489 563 29,000 -540 Descending Boston Center
11:14 42.6956 -75.0506 86° East 489 563 29,000  Level Boston Center
11:15 42.7036 -74.8700 86° East 489 563 29,000  Level Boston Center
11:16 42.7117 -74.6894 86° East 484 557 29,000  Level Boston Center
11:17 42.7169 -74.5114 88° East 471 542 29,000 -360 Level Boston Center
11:18 42.7244 -74.3336 87° East 471 542 28,300 -900 Descending Boston Center
11:19 42.7333 -74.1531 86° East 471 542 27,200 -1,560 Descending Boston Center
11:20 42.7381 -73.9750 88° East 471 542 25,200 -2,040 Descending Boston Center
11:21 42.7467 -73.7972 86° East 476 548 23,200 -1,980 Descending Boston Center
11:22 42.7547 -73.6278 86° East 468 539 21,300 -1,920 Descending Boston Center
11:23 42.7631 -73.4242 87° East 455 524 19,100 -1,080 Descending Boston Center
11:24 42.7664 -73.2603 88° East 431 496 19,000 -60 Descending Boston Center
11:25 42.7694 -73.1244 88° East 414 476 19,000  Level Boston Center
11:26 42.7786 -72.9550 86° East 404 465 19,000 -480 Level Boston Center
11:27 42.7811 -72.8022 89° East 404 465 18,100 -1,200 Descending Boston Center
11:28 42.7858 -72.6494 88° East 404 465 16,600 -1,800 Descending Boston Center
11:29 42.7900 -72.5022 88° East 399 459 14,500 -1,800 Descending Boston Center
11:30 42.7922 -72.3778 89° East 383 441 13,000 -1,680 Descending Boston Center
11:31 42.8025 -72.2419 84° East 340 391 11,200 -1,620 Descending Boston Center
11:32 42.8189 -72.1344 78° East 306 352 9,800 -1,560 Descending Boston Center
11:33 42.8519 -72.0322 66° East 279 321 8,100 -1,500 Descending Boston Center
11:34 42.8975 -71.9497 53° Northeast 273 314 6,800 -1,440 Descending Boston Center
11:35 42.9408 -71.8644 55° Northeast 273 314 5,300 -1,380 Descending Boston Center
11:36 42.9675 -71.7931 63° Northeast 268 308 4,100 -1,140 Descending Boston Center
11:37 43.0003 -71.6878 67° East 251 289 3,100 -840 Descending Boston Center
11:38 43.0144 -71.6222 74° East 245 282 2,500 -600 Descending Boston Center